Location: Eyeline Observatory
(43.2182°N, 78.8632°W)
Time: 13:40:19
(UTC-05:00)

Vanguard 2 - Pass Details

Date: 31 January 2018
Orbit: 553 x 2939 km, 32.9° (Epoch: 22 February)

Event Time Altitude Azimuth Distance (km) Brightness Sun altitude
Rises 00:28:07 0° 220° (SW) 2,803 - -64.2°
Reaches altitude 10° 00:30:41 10° 201° (SSW) 2,040 - -64.2°
Maximum altitude 00:33:58 19° 155° (SSE) 1,746 - -64.1°
Drops below altitude 10° 00:38:05 10° 112° (ESE) 2,665 - -64.1°
Sets 00:42:06 0° 96° (E) 4,042 - -64.0°
